User: anonymous   Login
Location: Caltech
(34.1382°N, 118.1253°W)
Time: 15:06:33
(UTC-08:00)
Language:

JAS-1B - Orbit

View from above orbital plane
View from above orbital plane
View from above satellite
View from above satellite

Ground track
Ground track

The orbit data is extracted from the following two-line orbital elements,

1 20480U 90013C   14351.17560477 -.00000046  00000-0 -21767-4 0  9278
2 20480 099.0706 280.0865 0539517 299.4918 168.9850 12.83401157164604
Epoch (UTC): 17 December 2014 04:12:52
Eccentricity: 0.0539517
inclination: 99.0706°
perigee height: 912 km
apogee height: 1743 km
right ascension of ascending node: 280.0865°
argument of perigee: 299.4918°
revolutions per day: 12.83401157
mean anomaly at epoch: 168.9850°
orbit number at epoch: 16460

The dashed part of the orbit path shows where the satellite is in the earth's shadow,  

DLR